Погода в Кангерлуссуаке

Гренландия     67°00′40″N   50°42′48″W
темп.,
°C
ветер,
м/с
пор.,
м/с
влажн.,
%
обл.,
%
осадки,
мм/ч
давл.,
гПа
погр.,
м
17 июня, чт
чт1701:00+4с118881 0.3 1013158
04:00+4зсз008172 0.4 1012212
07:00+4ююз117397 0.0 1012527
10:00+6ююв116166 0.0 10111022
13:00+8ююз1151100 0.1 10091276
16:00+9з1148100 0.4 10091504
19:00+7зсз1164100 0.3 1010955
22:00+4з3391100 1.6 1011525
18 июня, пт
пт1801:00+3зюз2296100 1.8 1011457
04:00+4ссз0196100 2.5 1011527
07:00+4св1194100 0.6 1011484
10:00+4св229399 0.9 1011525
13:00+6с128196 0.3 1011499
16:00+8ссв226088 0.4 10101135
19:00+9ссв435683 0.1 10101180
22:00+8ссв4460100 0.1 1010760
19 июня, сб
сб1901:00+6сз1273100 0.0 101180
04:00+6с1175100 0.0 101137
07:00+6св2264100 0.0 1012446
10:00+8св1157100 0.0 1011791
13:00+10св2250100 0.0 10101286
16:00+11св4445100 0.1 10091527
19:00+11св234599 0.1 10091455
22:00+10ссв3450100 0.1 1010695
20 июня, вс
вс2001:00+6ссз226179 0.0 101114
04:00+6св116341 0.0 101214
07:00+7св115514 0.0 1012419
10:00+10ссв11499 0.0 10121007
13:00+12всв014297 0.1 10121857
16:00+12св224598 0.4 10111507
19:00+12всв234784 0.4 10111503
22:00+10св025896 0.6 1011819
21 июня, пн
пн2101:00+7ююз227892 0.0 101276
04:00+7ююв118089 0.0 101285
07:00+7в216575 0.0 1012404
10:00+9вюв115848 0.0 1012775
13:00+12юв114744 0.1 10111557
16:00+13всв114197 0.1 10111708
19:00+13всв324250 0.1 10111560
22:00+11всв4351100 0.1 1011443